Meteo pe oră la Dziekszyn

Astăzi, 1 Octombrie, Joi

Timp Temperatura Precipitaţii Vânt Presiune Umiditate
00:00 +12°C° 0.2 mm 3 m/s 749 mmHg 87%
01:00 +12°C° 0 mm 3 m/s 749 mmHg 94%
02:00 +13°C° 0.1 mm 3 m/s 748 mmHg 93%
03:00 +13°C° 0.1 mm 3 m/s 748 mmHg 93%
04:00 +13°C° 0.1 mm 3 m/s 747 mmHg 92%
05:00 +13°C° 0.1 mm 3 m/s 747 mmHg 91%
06:00 +13°C° 0.1 mm 3 m/s 747 mmHg 91%
07:00 +12°C° 0.1 mm 3 m/s 747 mmHg 90%
08:00 +13°C° 0 mm 3 m/s 746 mmHg 84%
09:00 +14°C° 0 mm 3 m/s 746 mmHg 77%
10:00 +16°C° 0 mm 3 m/s 746 mmHg 70%
11:00 +16°C° 0 mm 3 m/s 746 mmHg 71%
12:00 +16°C° 0 mm 3 m/s 745 mmHg 71%
13:00 +15°C° 0 mm 4 m/s 745 mmHg 71%
14:00 +14°C° 0 mm 4 m/s 745 mmHg 73%
15:00 +14°C° 0 mm 3 m/s 745 mmHg 74%
16:00 +14°C° 0 mm 3 m/s 745 mmHg 75%
17:00 +14°C° 0 mm 3 m/s 745 mmHg 77%
18:00 +14°C° 0 mm 2 m/s 745 mmHg 79%
19:00 +14°C° 0 mm 2 m/s 745 mmHg 80%
20:00 +14°C° 0 mm 2 m/s 744 mmHg 80%
21:00 +14°C° 0 mm 2 m/s 744 mmHg 81%
22:00 +13°C° 0 mm 2 m/s 744 mmHg 81%
23:00 +13°C° 0 mm 2 m/s 744 mmHg 84%

Mâine, 2 Octombrie, Vineri

Timp Temperatura Precipitaţii Vânt Presiune Umiditate
00:00 +13°C° 0 mm 2 m/s 744 mmHg 86%
01:00 +11°C° 0 mm 3 m/s 744 mmHg 89%
02:00 +11°C° 0 mm 3 m/s 744 mmHg 90%
03:00 +11°C° 0 mm 3 m/s 744 mmHg 92%
04:00 +11°C° 0 mm 3 m/s 744 mmHg 93%
05:00 +11°C° 0 mm 4 m/s 744 mmHg 92%
06:00 +11°C° 0 mm 4 m/s 744 mmHg 91%
07:00 +12°C° 0 mm 4 m/s 744 mmHg 91%
08:00 +12°C° 0 mm 4 m/s 744 mmHg 87%
09:00 +13°C° 0 mm 4 m/s 744 mmHg 84%
10:00 +14°C° 0 mm 4 m/s 744 mmHg 81%
11:00 +14°C° 0.1 mm 4 m/s 744 mmHg 78%
12:00 +15°C° 0.1 mm 4 m/s 744 mmHg 75%
13:00 +15°C° 0.1 mm 4 m/s 744 mmHg 71%
14:00 +15°C° 0 mm 5 m/s 744 mmHg 72%
15:00 +15°C° 0 mm 5 m/s 744 mmHg 73%
16:00 +15°C° 0 mm 5 m/s 744 mmHg 73%
17:00 +15°C° 0 mm 4 m/s 744 mmHg 78%
18:00 +14°C° 0 mm 4 m/s 744 mmHg 83%
19:00 +13°C° 0 mm 4 m/s 744 mmHg 88%
20:00 +12°C° 0 mm 4 m/s 744 mmHg 89%
21:00 +12°C° 0 mm 5 m/s 744 mmHg 91%
22:00 +12°C° 0 mm 5 m/s 743 mmHg 92%
23:00 +12°C° 0 mm 5 m/s 743 mmHg 92%

Poimâine, 3 Octombrie, Sâmbătă

Timp Temperatura Precipitaţii Vânt Presiune Umiditate
00:00 +11°C° 0 mm 6 m/s 743 mmHg 93%
01:00 +11°C° 0 mm 6 m/s 742 mmHg 93%
02:00 +11°C° 0 mm 6 m/s 742 mmHg 91%
03:00 +12°C° 0 mm 7 m/s 741 mmHg 88%
04:00 +14°C° 0 mm 7 m/s 741 mmHg 86%
05:00 +14°C° 0 mm 7 m/s 740 mmHg 85%
06:00 +14°C° 0 mm 7 m/s 740 mmHg 85%
07:00 +14°C° 0 mm 7 m/s 740 mmHg 84%
08:00 +16°C° 0 mm 8 m/s 739 mmHg 77%
09:00 +17°C° 0 mm 8 m/s 739 mmHg 70%
10:00 +20°C° 0 mm 8 m/s 739 mmHg 63%
11:00 +21°C° 0 mm 8 m/s 739 mmHg 58%
12:00 +23°C° 0 mm 8 m/s 739 mmHg 53%
13:00 +24°C° 0 mm 8 m/s 738 mmHg 49%
14:00 +24°C° 0 mm 7 m/s 738 mmHg 51%
15:00 +23°C° 0 mm 6 m/s 738 mmHg 54%
16:00 +23°C° 0 mm 4 m/s 738 mmHg 57%
17:00 +22°C° 0 mm 5 m/s 738 mmHg 59%
18:00 +22°C° 0 mm 7 m/s 738 mmHg 60%
19:00 +21°C° 0 mm 8 m/s 738 mmHg 62%
20:00 +21°C° 0 mm 8 m/s 738 mmHg 62%
21:00 +21°C° 0 mm 8 m/s 738 mmHg 62%
22:00 +20°C° 0 mm 8 m/s 738 mmHg 62%
23:00 +20°C° 0 mm 8 m/s 737 mmHg 62%

4 Octombrie, Duminică

Timp Temperatura Precipitaţii Vânt Presiune Umiditate
00:00 +20°C° 0 mm 8 m/s 737 mmHg 62%
01:00 +20°C° 0 mm 8 m/s 737 mmHg 63%
02:00 +20°C° 0 mm 7 m/s 737 mmHg 63%
03:00 +20°C° 0 mm 7 m/s 737 mmHg 64%
04:00 +20°C° 0 mm 7 m/s 738 mmHg 64%
05:00 +19°C° 0 mm 5 m/s 738 mmHg 70%
06:00 +18°C° 0 mm 3 m/s 739 mmHg 76%
07:00 +16°C° 0 mm 2 m/s 739 mmHg 82%
08:00 +17°C° 0 mm 3 m/s 740 mmHg 77%
09:00 +18°C° 0 mm 3 m/s 740 mmHg 72%
10:00 +19°C° 0 mm 4 m/s 741 mmHg 67%
11:00 +19°C° 0 mm 4 m/s 742 mmHg 66%
12:00 +20°C° 0 mm 4 m/s 742 mmHg 64%
13:00 +20°C° 0 mm 4 m/s 743 mmHg 63%
14:00 +20°C° 0 mm 3 m/s 743 mmHg 63%
15:00 +20°C° 0 mm 3 m/s 744 mmHg 63%
16:00 +20°C° 0 mm 2 m/s 744 mmHg 63%
17:00 +19°C° 0 mm 2 m/s 744 mmHg 68%
18:00 +19°C° 0 mm 1 m/s 744 mmHg 72%
19:00 +16°C° 0 mm 1 m/s 745 mmHg 77%
20:00 +16°C° 0 mm 1 m/s 745 mmHg 78%
21:00 +16°C° 0 mm 2 m/s 745 mmHg 79%
22:00 +14°C° 0 mm 3 m/s 745 mmHg 81%
23:00 +14°C° 0 mm 3 m/s 745 mmHg 79%

5 Octombrie, Luni

Timp Temperatura Precipitaţii Vânt Presiune Umiditate
00:00 +14°C° 0 mm 3 m/s 745 mmHg 78%
01:00 +14°C° 0 mm 3 m/s 744 mmHg 76%
02:00 +14°C° 0 mm 4 m/s 744 mmHg 76%
03:00 +13°C° 0 mm 4 m/s 744 mmHg 76%
04:00 +13°C° 0 mm 4 m/s 744 mmHg 75%
05:00 +13°C° 0 mm 4 m/s 743 mmHg 75%
06:00 +14°C° 0 mm 5 m/s 743 mmHg 75%
07:00 +14°C° 0 mm 5 m/s 743 mmHg 76%
08:00 +15°C° 0.2 mm 5 m/s 743 mmHg 74%
09:00 +16°C° 0.2 mm 5 m/s 742 mmHg 72%
10:00 +17°C° 0.2 mm 6 m/s 742 mmHg 70%
11:00 +19°C° 0 mm 6 m/s 742 mmHg 64%
12:00 +21°C° 0 mm 7 m/s 742 mmHg 57%
13:00 +22°C° 0 mm 7 m/s 742 mmHg 50%
14:00 +21°C° 0 mm 6 m/s 742 mmHg 52%
15:00 +21°C° 0 mm 6 m/s 742 mmHg 55%
16:00 +20°C° 0 mm 5 m/s 742 mmHg 57%
17:00 +19°C° 0.2 mm 4 m/s 743 mmHg 65%
18:00 +17°C° 0.2 mm 4 m/s 743 mmHg 72%
19:00 +15°C° 0.2 mm 4 m/s 744 mmHg 80%
20:00 +14°C° 0 mm 5 m/s 744 mmHg 80%
21:00 +13°C° 0 mm 5 m/s 745 mmHg 80%
22:00 +13°C° 0 mm 6 m/s 746 mmHg 80%
23:00 +12°C° 0 mm 5 m/s 746 mmHg 81%

6 Octombrie, Marţi

Timp Temperatura Precipitaţii Vânt Presiune Umiditate
00:00 +11°C° 0 mm 4 m/s 747 mmHg 81%
01:00 +11°C° 0 mm 3 m/s 747 mmHg 82%
02:00 +11°C° 0 mm 3 m/s 747 mmHg 84%
03:00 +10°C° 0 mm 3 m/s 747 mmHg 86%
04:00 +10°C° 0 mm 4 m/s 747 mmHg 88%
05:00 +10°C° 0 mm 3 m/s 748 mmHg 85%
06:00 +10°C° 0 mm 3 m/s 748 mmHg 83%
07:00 +11°C° 0 mm 3 m/s 748 mmHg 80%
08:00 +12°C° 0 mm 3 m/s 748 mmHg 73%
09:00 +14°C° 0 mm 3 m/s 748 mmHg 66%
10:00 +17°C° 0 mm 4 m/s 748 mmHg 59%
11:00 +18°C° 0 mm 3 m/s 748 mmHg 56%
12:00 +18°C° 0 mm 3 m/s 748 mmHg 52%
13:00 +19°C° 0 mm 3 m/s 748 mmHg 48%
14:00 +19°C° 0 mm 2 m/s 747 mmHg 50%
15:00 +19°C° 0 mm 2 m/s 747 mmHg 53%
16:00 +19°C° 0 mm 1 m/s 747 mmHg 55%
17:00 +19°C° 0 mm 1 m/s 747 mmHg 56%
18:00 +18°C° 0 mm 1 m/s 747 mmHg 58%
19:00 +15°C° 0 mm 0 m/s 747 mmHg 60%
20:00 +16°C° 0 mm 1 m/s 747 mmHg 62%
21:00 +15°C° 0 mm 1 m/s 747 mmHg 63%
22:00 +15°C° 0 mm 2 m/s 747 mmHg 65%
23:00 +15°C° 0.2 mm 2 m/s 747 mmHg 70%
Arată mai mult

We Need Your Consent

Meteoprog and our Service Providers may store and access personal data such as cookies, device identifiers or other similar technologies on your device and process such data to personalise content and ads, as well as provide social media features and to analyse the traffic.

  • Store and/or access information on your device

    Cookies, device identifiers or other information can be stored or accessed on your device for the purposes indicated above.

  • Personalised ads and content, ad and content measurement, audience insights, and products development

    Ads and content can be personalised based on a profile. More data can be added to better personalise ads and content. Ad and content performance can be measured. Insights about the audience who saw the ads and content can be derived. Such data can be used to develop or improve user’s experience, systems and software.

By clicking ‘I Agree’ you will allow the use of indicated cookies, device identifiers, web beacons or other similar technologies. Your settings can be changed in the browser on your device.

For certain purposes, legitimate interests may be relied on, rather than consent. You can read more about this in our Privacy and Cookie Policy.